| time (UTC) | temp F | wind direction | speed MPH | gust MPH | rain 1hr in | rain 24hr in | rain mn in | humidity % | barometer mb |
| 20260505184248 | 46 | 191 | 2.0 | 3.0 | 0.00 | 0.00 | 0.00 | 53 | 1018.2 |
| 20260505183744 | 47 | 223 | 3.0 | 4.0 | 0.00 | 0.00 | 0.00 | 54 | 1018.7 |
| 20260505183242 | 46 | 260 | 2.0 | 4.0 | 0.00 | 0.00 | 0.00 | 54 | 1018.9 |
| 20260505182738 | 48 | 215 | 1.0 | 2.0 | 0.00 | 0.00 | 0.00 | 53 | 1018.6 |
| 20260505182235 | 49 | 215 | 1.0 | 2.0 | 0.00 | 0.00 | 0.00 | 52 | 1018.6 |
| 20260505181731 | 48 | 122 | 1.0 | 2.0 | 0.00 | 0.00 | 0.00 | 54 | 1018.9 |
| 20260505181229 | 47 | 210 | 2.0 | 2.0 | 0.00 | 0.00 | 0.00 | 55 | 1018.7 |
| 20260505180726 | 48 | 185 | 1.0 | 2.0 | 0.00 | 0.00 | 0.00 | 54 | 1019.0 |
| 20260505180222 | 49 | 245 | 1.0 | 1.0 | 0.00 | 0.00 | 0.00 | 51 | 1018.9 |
| 20260505175718 | 50 | 210 | 3.0 | 4.0 | 0.00 | 0.00 | 0.00 | 50 | 1018.7 |
| 20260505175215 | 48 | 233 | 1.0 | 1.0 | 0.00 | 0.00 | 0.00 | 54 | 1019.1 |
| 20260505174712 | 48 | 248 | 1.0 | 2.0 | 0.00 | 0.00 | 0.00 | 51 | 1019.0 |
| 20260505174209 | 47 | 207 | 4.0 | 7.0 | 0.00 | 0.00 | 0.00 | 54 | 1019.0 |
| 20260505173704 | 46 | 216 | 6.0 | 9.0 | 0.00 | 0.00 | 0.00 | 58 | 1019.5 |
| 20260505173201 | 45 | 242 | 0.0 | 1.0 | 0.00 | 0.00 | 0.00 | 59 | 1019.4 |
| 20260505172659 | 46 | 224 | 6.0 | 7.0 | 0.00 | 0.00 | 0.00 | 59 | 1019.4 |
| 20260505172156 | 46 | 205 | 1.0 | 2.0 | 0.00 | 0.00 | 0.00 | 62 | 1019.4 |
| 20260505171655 | 46 | 239 | 1.0 | 2.0 | 0.00 | 0.00 | 0.00 | 60 | 1019.5 |
| 20260505171153 | 45 | 77 | 3.0 | 4.0 | 0.00 | 0.00 | 0.00 | 63 | 1019.5 |
| 20260505170650 | 44 | 67 | 1.0 | 2.0 | 0.00 | 0.00 | 0.00 | 65 | 1019.6 |
| 20260505170146 | 43 | 291 | 0.0 | 0.0 | 0.00 | 0.00 | 0.00 | 66 | 1019.6 |
| 20260505165646 | 45 | 58 | 3.0 | 4.0 | 0.00 | 0.00 | 0.00 | 63 | 1019.6 |
| 20260505165143 | 46 | 235 | 2.0 | 2.0 | 0.00 | 0.00 | 0.00 | 61 | 1019.6 |
| 20260505164638 | 44 | 226 | 0.0 | 0.0 | 0.00 | 0.00 | 0.00 | 67 | 1020.0 |
| 20260505164136 | 42 | 111 | 5.0 | 7.0 | 0.00 | 0.00 | 0.00 | 68 | 1020.2 |
| 20260505163634 | 42 | 146 | 2.0 | 3.0 | 0.00 | 0.00 | 0.00 | 70 | 1020.0 |
| 20260505163132 | 44 | 251 | 1.0 | 1.0 | 0.00 | 0.00 | 0.00 | 68 | 1020.2 |
| 20260505162629 | 43 | 165 | 0.0 | 1.0 | 0.00 | 0.00 | 0.00 | 68 | 1020.0 |
| 20260505162126 | 45 | 245 | 1.0 | 1.0 | 0.00 | 0.00 | 0.00 | 65 | 1019.9 |
| 20260505161623 | 45 | 290 | 0.0 | 0.0 | 0.00 | 0.00 | 0.00 | 64 | 1020.2 |
| 20260505161120 | 45 | 272 | 0.0 | 0.0 | 0.00 | 0.00 | 0.00 | 65 | 1019.8 |
| 20260505160618 | 44 | 248 | 0.0 | 1.0 | 0.00 | 0.00 | 0.00 | 68 | 1019.8 |
| 20260505160115 | 42 | 112 | 3.0 | 3.0 | 0.00 | 0.00 | 0.00 | 70 | 1019.8 |
| 20260505153055 | 43 | 254 | 0.0 | 1.0 | 0.00 | 0.00 | 0.00 | 67 | 1019.9 |
| 20260505152551 | 43 | 216 | 1.0 | 2.0 | 0.00 | 0.00 | 0.00 | 67 | 1019.4 |
| 20260505152047 | 42 | 248 | 1.0 | 2.0 | 0.00 | 0.00 | 0.00 | 68 | 1019.9 |
| 20260505151542 | 43 | 135 | 3.0 | 4.0 | 0.00 | 0.00 | 0.00 | 68 | 1019.5 |
| 20260505151040 | 41 | 321 | 0.0 | 0.0 | 0.00 | 0.00 | 0.00 | 73 | 1019.8 |
| 20260505150536 | 42 | 317 | 0.0 | 1.0 | 0.00 | 0.00 | 0.00 | 72 | 1019.8 |
| 20260505140501 | 36 | 251 | 0.0 | 0.0 | 0.00 | 0.00 | 0.00 | 82 | 1020.3 |
| 20260505124915 | 35 | 291 | 0.0 | 0.0 | 0.00 | 0.00 | 0.00 | 81 | 1019.9 |
| 20260505124412 | 36 | 258 | 0.0 | 0.0 | 0.00 | 0.00 | 0.00 | 80 | 1020.0 |
| 20260505123908 | 36 | 232 | 1.0 | 2.0 | 0.00 | 0.00 | 0.00 | 81 | 1020.2 |
| 20260505123405 | 36 | 233 | 0.0 | 1.0 | 0.00 | 0.00 | 0.00 | 81 | 1020.0 |
| 20260505122900 | 36 | 232 | 0.0 | 1.0 | 0.00 | 0.00 | 0.00 | 81 | 1019.9 |
| 20260505122358 | 36 | 175 | 2.0 | 2.0 | 0.00 | 0.00 | 0.00 | 80 | 1020.0 |
| 20260505121854 | 37 | 294 | 0.0 | 0.0 | 0.00 | 0.00 | 0.00 | 80 | 1020.0 |
| 20260505121351 | 36 | 304 | 0.0 | 0.0 | 0.00 | 0.00 | 0.00 | 81 | 1020.2 |
| 20260505120847 | 36 | 310 | 0.0 | 0.0 | 0.00 | 0.00 | 0.00 | 80 | 1019.9 |
| 20260505120344 | 36 | 311 | 0.0 | 0.0 | 0.00 | 0.00 | 0.00 | 80 | 1019.9 |
| 20260505115842 | 37 | 312 | 0.0 | 1.0 | 0.00 | 0.00 | 0.00 | 80 | 1019.6 |
| 20260505115340 | 36 | 312 | 0.0 | 0.0 | 0.00 | 0.00 | 0.00 | 81 | 1020.0 |
| 20260505114838 | 37 | 312 | 0.0 | 1.0 | 0.00 | 0.00 | 0.00 | 81 | 1019.6 |
| 20260505114334 | 37 | 312 | 0.0 | 0.0 | 0.00 | 0.00 | 0.00 | 81 | 1019.8 |
| 20260505113830 | 36 | 313 | 0.0 | 0.0 | 0.00 | 0.00 | 0.00 | 82 | 1019.9 |
| 20260505113327 | 35 | 310 | 0.0 | 1.0 | 0.00 | 0.00 | 0.00 | 84 | 1019.8 |
| 20260505112823 | 36 | 310 | 0.0 | 0.0 | 0.00 | 0.00 | 0.00 | 83 | 1019.9 |
| 20260505112320 | 36 | 310 | 0.0 | 0.0 | 0.00 | 0.00 | 0.00 | 84 | 1019.6 |
| 20260505111816 | 35 | 310 | 1.0 | 1.0 | 0.00 | 0.00 | 0.00 | 84 | 1019.5 |
| 20260505111311 | 35 | 303 | 1.0 | 1.0 | 0.00 | 0.00 | 0.00 | 85 | 1019.8 |
| 20260505110807 | 35 | 308 | 0.0 | 0.0 | 0.00 | 0.00 | 0.00 | 85 | 1019.8 |
| 20260505110305 | 35 | 306 | 1.0 | 1.0 | 0.00 | 0.00 | 0.00 | 85 | 1019.9 |
| 20260505101739 | 36 | 263 | 0.0 | 0.0 | 0.00 | 0.00 | 0.00 | 83 | 1019.9 |
| 20260505101235 | 36 | 264 | 0.0 | 0.0 | 0.00 | 0.00 | 0.00 | 84 | 1019.9 |
| 20260505100732 | 36 | 264 | 0.0 | 0.0 | 0.00 | 0.00 | 0.00 | 84 | 1019.8 |
| 20260505100229 | 36 | 264 | 0.0 | 0.0 | 0.00 | 0.00 | 0.00 | 84 | 1019.9 |
| 20260505095724 | 36 | 264 | 0.0 | 0.0 | 0.00 | 0.00 | 0.00 | 83 | 1020.0 |
| 20260505095222 | 36 | 264 | 0.0 | 0.0 | 0.00 | 0.00 | 0.00 | 82 | 1020.3 |
| 20260505094717 | 37 | 264 | 0.0 | 0.0 | 0.00 | 0.00 | 0.00 | 81 | 1020.3 |
| 20260505094214 | 37 | 264 | 0.0 | 1.0 | 0.00 | 0.00 | 0.00 | 81 | 1020.6 |
| 20260505093710 | 37 | 264 | 0.0 | 1.0 | 0.00 | 0.00 | 0.00 | 80 | 1020.3 |
| 20260505093208 | 37 | 264 | 0.0 | 1.0 | 0.00 | 0.00 | 0.00 | 80 | 1020.3 |
| 20260505092704 | 37 | 277 | 1.0 | 1.0 | 0.00 | 0.00 | 0.00 | 80 | 1020.4 |
| 20260505092203 | 37 | 282 | 0.0 | 0.0 | 0.00 | 0.00 | 0.00 | 81 | 1020.3 |
| 20260505091700 | 37 | 282 | 0.0 | 0.0 | 0.00 | 0.00 | 0.00 | 81 | 1020.6 |
| 20260505091158 | 37 | 289 | 0.0 | 0.0 | 0.00 | 0.00 | 0.00 | 81 | 1020.9 |
| 20260505090655 | 37 | 288 | 0.0 | 0.0 | 0.00 | 0.00 | 0.00 | 80 | 1020.6 |
| 20260505090154 | 37 | 304 | 0.0 | 0.0 | 0.00 | 0.00 | 0.00 | 80 | 1020.8 |
| 20260505085650 | 38 | 314 | 0.0 | 0.0 | 0.00 | 0.00 | 0.00 | 79 | 1020.8 |
| 20260505085149 | 38 | 51 | 0.0 | 0.0 | 0.00 | 0.00 | 0.00 | 79 | 1020.7 |
| 20260505084646 | 38 | 51 | 0.0 | 0.0 | 0.00 | 0.00 | 0.00 | 79 | 1020.9 |
| 20260505084145 | 38 | 51 | 0.0 | 0.0 | 0.00 | 0.00 | 0.00 | 79 | 1020.8 |
| 20260505083642 | 38 | 0 | 1.0 | 2.0 | 0.00 | 0.00 | 0.00 | 79 | 1020.9 |
| 20260505083138 | 38 | 251 | 0.0 | 1.0 | 0.00 | 0.00 | 0.00 | 78 | 1021.1 |
| 20260505082634 | 38 | 263 | 2.0 | 2.0 | 0.00 | 0.00 | 0.00 | 79 | 1021.5 |
| 20260505082131 | 39 | 300 | 0.0 | 0.0 | 0.00 | 0.00 | 0.00 | 78 | 1021.1 |
| 20260505081627 | 39 | 315 | 0.0 | 0.0 | 0.00 | 0.00 | 0.00 | 77 | 1021.1 |
| 20260505081125 | 39 | 326 | 2.0 | 3.0 | 0.00 | 0.00 | 0.00 | 77 | 1020.8 |
| 20260505080621 | 39 | 302 | 0.0 | 0.0 | 0.00 | 0.00 | 0.00 | 77 | 1021.2 |
| 20260505080117 | 39 | 32 | 0.0 | 1.0 | 0.00 | 0.00 | 0.00 | 77 | 1021.2 |
| 20260505075614 | 39 | 326 | 1.0 | 1.0 | 0.00 | 0.00 | 0.00 | 77 | 1021.1 |
| 20260505075110 | 39 | 251 | 1.0 | 2.0 | 0.00 | 0.00 | 0.00 | 77 | 1021.2 |
| 20260505074607 | 39 | 281 | 0.0 | 0.0 | 0.00 | 0.00 | 0.00 | 76 | 1021.3 |
| 20260505074104 | 39 | 299 | 0.0 | 0.0 | 0.00 | 0.00 | 0.00 | 75 | 1021.3 |
| 20260505073602 | 39 | 250 | 1.0 | 1.0 | 0.00 | 0.00 | 0.00 | 74 | 1021.5 |
| 20260505073100 | 39 | 8 | 1.0 | 1.0 | 0.00 | 0.00 | 0.00 | 74 | 1021.7 |
| 20260505072555 | 39 | 344 | 1.0 | 1.0 | 0.00 | 0.00 | 0.00 | 73 | 1021.1 |
| 20260505072052 | 40 | 323 | 1.0 | 1.0 | 0.00 | 0.00 | 0.00 | 72 | 1021.2 |
| 20260505071548 | 40 | 342 | 0.0 | 1.0 | 0.00 | 0.00 | 0.00 | 72 | 1021.2 |
| 20260505071046 | 40 | 49 | 1.0 | 2.0 | 0.00 | 0.00 | 0.00 | 72 | 1021.1 |
| 20260505070543 | 40 | 19 | 1.0 | 1.0 | 0.00 | 0.00 | 0.00 | 72 | 1021.1 |
| 20260505070039 | 40 | 14 | 2.0 | 3.0 | 0.00 | 0.00 | 0.00 | 72 | 1021.1 |
| 20260505065535 | 40 | 14 | 2.0 | 3.0 | 0.00 | 0.00 | 0.00 | 72 | 1021.1 |
| 20260505065032 | 40 | 348 | 2.0 | 3.0 | 0.00 | 0.00 | 0.00 | 72 | 1020.9 |
| 20260505064528 | 40 | 69 | 4.0 | 8.0 | 0.00 | 0.00 | 0.00 | 72 | 1020.9 |
| 20260505064027 | 40 | 65 | 2.0 | 4.0 | 0.00 | 0.00 | 0.00 | 71 | 1020.9 |
| 20260505063524 | 40 | 32 | 1.0 | 2.0 | 0.00 | 0.00 | 0.00 | 70 | 1021.2 |
| 20260505063020 | 40 | 56 | 4.0 | 7.0 | 0.00 | 0.00 | 0.00 | 69 | 1020.8 |
| 20260505062517 | 41 | 65 | 2.0 | 4.0 | 0.00 | 0.00 | 0.00 | 66 | 1020.9 |
| 20260505062014 | 42 | 50 | 2.0 | 3.0 | 0.00 | 0.00 | 0.00 | 60 | 1020.9 |
| 20260505061512 | 42 | 314 | 1.0 | 1.0 | 0.00 | 0.00 | 0.00 | 58 | 1020.7 |
| 20260505061009 | 42 | 302 | 0.0 | 0.0 | 0.00 | 0.00 | 0.00 | 57 | 1020.9 |
| 20260505060506 | 43 | 351 | 1.0 | 2.0 | 0.00 | 0.00 | 0.00 | 56 | 1021.1 |
| 20260505060002 | 44 | 29 | 1.0 | 2.0 | 0.00 | 0.00 | 0.00 | 49 | 1020.8 |
| 20260505055458 | 45 | 264 | 0.0 | 0.0 | 0.00 | 0.00 | 0.00 | 41 | 1020.8 |
| 20260505054955 | 47 | 141 | 2.0 | 2.0 | 0.00 | 0.00 | 0.00 | 39 | 1020.8 |
| 20260505054453 | 48 | 261 | 1.0 | 1.0 | 0.00 | 0.00 | 0.00 | 30 | 1020.6 |
| 20260505053950 | 48 | 329 | 1.0 | 1.0 | 0.00 | 0.00 | 0.00 | 30 | 1020.6 |
| 20260505053447 | 49 | 303 | 1.0 | 1.0 | 0.00 | 0.00 | 0.00 | 30 | 1020.8 |
| 20260505052944 | 49 | 262 | 2.0 | 2.0 | 0.00 | 0.00 | 0.00 | 30 | 1020.6 |
| 20260505052441 | 49 | 321 | 2.0 | 3.0 | 0.00 | 0.00 | 0.00 | 29 | 1020.8 |
| 20260505051938 | 49 | 293 | 3.0 | 3.0 | 0.00 | 0.00 | 0.00 | 29 | 1020.9 |
| 20260505051435 | 48 | 291 | 1.0 | 2.0 | 0.00 | 0.00 | 0.00 | 30 | 1021.1 |
| 20260505050933 | 48 | 284 | 0.0 | 0.0 | 0.00 | 0.00 | 0.00 | 30 | 1021.2 |
| 20260505050431 | 48 | 271 | 0.0 | 1.0 | 0.00 | 0.00 | 0.00 | 30 | 1021.2 |
| 20260505041359 | 51 | 302 | 3.0 | 6.0 | 0.00 | 0.00 | 0.00 | 26 | 1021.2 |
| 20260505040856 | 50 | 41 | 4.0 | 6.0 | 0.00 | 0.00 | 0.00 | 27 | 1021.1 |
| 20260505040354 | 50 | 258 | 1.0 | 1.0 | 0.00 | 0.00 | 0.00 | 27 | 1020.9 |
| 20260505035850 | 50 | 316 | 2.0 | 3.0 | 0.00 | 0.00 | 0.00 | 27 | 1020.8 |
| 20260505035345 | 50 | 3 | 3.0 | 4.0 | 0.00 | 0.00 | 0.00 | 27 | 1020.8 |
| 20260505034843 | 50 | 23 | 3.0 | 4.0 | 0.00 | 0.00 | 0.00 | 28 | 1020.6 |
| 20260505034340 | 50 | 355 | 5.0 | 7.0 | 0.00 | 0.00 | 0.00 | 28 | 1020.2 |
| 20260505033837 | 50 | 300 | 3.0 | 4.0 | 0.00 | 0.00 | 0.00 | 27 | 1020.3 |
| 20260505033334 | 50 | 320 | 3.0 | 3.0 | 0.00 | 0.00 | 0.00 | 27 | 1020.4 |
| 20260505032832 | 50 | 296 | 3.0 | 4.0 | 0.00 | 0.00 | 0.00 | 27 | 1020.4 |
| 20260505032328 | 49 | 330 | 3.0 | 3.0 | 0.00 | 0.00 | 0.00 | 27 | 1020.7 |
| 20260505031825 | 49 | 313 | 1.0 | 1.0 | 0.00 | 0.00 | 0.00 | 26 | 1020.8 |
| 20260505031321 | 50 | 348 | 2.0 | 3.0 | 0.00 | 0.00 | 0.00 | 26 | 1020.8 |
| 20260505030819 | 50 | 356 | 3.0 | 4.0 | 0.00 | 0.00 | 0.00 | 25 | 1020.7 |
| 20260505030315 | 50 | 2 | 3.0 | 4.0 | 0.00 | 0.00 | 0.00 | 25 | 1020.4 |
| 20260505025810 | 50 | 336 | 2.0 | 3.0 | 0.00 | 0.00 | 0.00 | 25 | 1020.2 |
| 20260505025308 | 50 | 339 | 1.0 | 2.0 | 0.00 | 0.00 | 0.00 | 25 | 1020.2 |
| 20260505024807 | 50 | 303 | 1.0 | 2.0 | 0.00 | 0.00 | 0.00 | 25 | 1020.0 |
| 20260505024304 | 51 | 296 | 1.0 | 2.0 | 0.00 | 0.00 | 0.00 | 24 | 1020.0 |
| 20260505023801 | 51 | 288 | 8.0 | 10.0 | 0.00 | 0.00 | 0.00 | 24 | 1020.3 |
| 20260505023258 | 51 | 299 | 1.0 | 2.0 | 0.00 | 0.00 | 0.00 | 24 | 1020.0 |
| 20260505022755 | 51 | 319 | 2.0 | 2.0 | 0.00 | 0.00 | 0.00 | 23 | 1019.6 |
| 20260505022252 | 51 | 33 | 4.0 | 6.0 | 0.00 | 0.00 | 0.00 | 23 | 1019.8 |
| 20260505021749 | 51 | 305 | 1.0 | 1.0 | 0.00 | 0.00 | 0.00 | 23 | 1019.2 |
| 20260505021246 | 51 | 333 | 1.0 | 2.0 | 0.00 | 0.00 | 0.00 | 23 | 1019.2 |
| 20260505020742 | 51 | 268 | 5.0 | 9.0 | 0.00 | 0.00 | 0.00 | 22 | 1019.2 |
| 20260505020237 | 51 | 321 | 9.0 | 13.0 | 0.00 | 0.00 | 0.00 | 22 | 1019.2 |
| 20260505015734 | 52 | 306 | 5.0 | 7.0 | 0.00 | 0.00 | 0.00 | 22 | 1019.1 |
| 20260505015231 | 52 | 295 | 2.0 | 3.0 | 0.00 | 0.00 | 0.00 | 23 | 1019.1 |
| 20260505014728 | 52 | 302 | 3.0 | 4.0 | 0.00 | 0.00 | 0.00 | 22 | 1019.2 |
| 20260505014226 | 52 | 328 | 2.0 | 3.0 | 0.00 | 0.00 | 0.00 | 23 | 1019.1 |
| 20260505013722 | 52 | 308 | 3.0 | 4.0 | 0.00 | 0.00 | 0.00 | 22 | 1018.9 |
| 20260505013219 | 52 | 332 | 3.0 | 6.0 | 0.00 | 0.00 | 0.00 | 22 | 1018.9 |
| 20260505012718 | 52 | 305 | 2.0 | 3.0 | 0.00 | 0.00 | 0.00 | 22 | 1018.6 |
| 20260505012214 | 53 | 293 | 3.0 | 3.0 | 0.00 | 0.00 | 0.00 | 22 | 1018.7 |
| 20260505011710 | 53 | 296 | 2.0 | 4.0 | 0.00 | 0.00 | 0.00 | 22 | 1018.7 |
| 20260505011208 | 53 | 280 | 2.0 | 2.0 | 0.00 | 0.00 | 0.00 | 22 | 1018.3 |
| 20260505010703 | 53 | 294 | 1.0 | 2.0 | 0.00 | 0.00 | 0.00 | 22 | 1018.6 |
| 20260505010200 | 53 | 305 | 2.0 | 3.0 | 0.00 | 0.00 | 0.00 | 22 | 1018.9 |
| 20260505005656 | 54 | 293 | 8.0 | 11.0 | 0.00 | 0.00 | 0.00 | 21 | 1018.9 |
| 20260505005153 | 54 | 259 | 10.0 | 17.0 | 0.00 | 0.00 | 0.00 | 22 | 1018.7 |
| 20260505004650 | 54 | 249 | 5.0 | 6.0 | 0.00 | 0.00 | 0.00 | 22 | 1018.9 |
| 20260505004147 | 54 | 303 | 3.0 | 3.0 | 0.00 | 0.00 | 0.00 | 22 | 1018.9 |
| 20260505003644 | 54 | 265 | 11.0 | 14.0 | 0.00 | 0.00 | 0.00 | 22 | 1019.1 |
| 20260505003142 | 55 | 20 | 9.0 | 11.0 | 0.00 | 0.00 | 0.00 | 22 | 1019.1 |
| 20260505002637 | 55 | 271 | 11.0 | 17.0 | 0.00 | 0.00 | 0.00 | 22 | 1018.9 |
| 20260505002136 | 55 | 260 | 4.0 | 6.0 | 0.00 | 0.00 | 0.00 | 23 | 1018.7 |
| 20260505001632 | 55 | 271 | 11.0 | 16.0 | 0.00 | 0.00 | 0.00 | 22 | 1018.9 |
| 20260505001130 | 55 | 253 | 6.0 | 9.0 | 0.00 | 0.00 | 0.00 | 23 | 1018.9 |
| 20260505000627 | 55 | 261 | 7.0 | 9.0 | 0.00 | 0.00 | 0.00 | 23 | 1018.9 |
| 20260505000125 | 56 | 283 | 9.0 | 13.0 | 0.00 | 0.00 | 0.00 | 23 | 1019.1 |
| 20260504235621 | 56 | 244 | 3.0 | 4.0 | 0.00 | 0.00 | 0.00 | 23 | 1018.7 |
| 20260504235118 | 56 | 236 | 6.0 | 7.0 | 0.00 | 0.00 | 0.00 | 24 | 1019.0 |
| 20260504234615 | 56 | 110 | 3.0 | 6.0 | 0.00 | 0.00 | 0.00 | 24 | 1019.0 |
| 20260504234112 | 56 | 272 | 2.0 | 3.0 | 0.00 | 0.00 | 0.00 | 24 | 1019.0 |
| 20260504233608 | 56 | 277 | 4.0 | 4.0 | 0.00 | 0.00 | 0.00 | 24 | 1019.0 |
| 20260504233104 | 56 | 321 | 1.0 | 3.0 | 0.00 | 0.00 | 0.00 | 25 | 1018.9 |
| 20260504232601 | 56 | 264 | 6.0 | 7.0 | 0.00 | 0.00 | 0.00 | 25 | 1019.2 |
| 20260504232059 | 57 | 311 | 3.0 | 4.0 | 0.00 | 0.00 | 0.00 | 25 | 1019.0 |
| 20260504231555 | 57 | 246 | 8.0 | 11.0 | 0.00 | 0.00 | 0.00 | 25 | 1018.7 |
| 20260504231051 | 56 | 264 | 6.0 | 8.0 | 0.00 | 0.00 | 0.00 | 26 | 1019.0 |
| 20260504230547 | 57 | 235 | 8.0 | 16.0 | 0.00 | 0.00 | 0.00 | 26 | 1018.9 |
| 20260504230047 | 58 | 283 | 6.0 | 8.0 | 0.00 | 0.00 | 0.00 | 25 | 1018.9 |
| 20260504225543 | 57 | 256 | 3.0 | 4.0 | 0.00 | 0.00 | 0.00 | 26 | 1019.1 |
| 20260504225040 | 57 | 248 | 7.0 | 8.0 | 0.00 | 0.00 | 0.00 | 26 | 1019.0 |
| 20260504224537 | 58 | 308 | 2.0 | 4.0 | 0.00 | 0.00 | 0.00 | 26 | 1019.0 |
| 20260504224034 | 59 | 273 | 1.0 | 1.0 | 0.00 | 0.00 | 0.00 | 27 | 1019.2 |
| 20260504223531 | 60 | 292 | 1.0 | 2.0 | 0.00 | 0.00 | 0.00 | 26 | 1019.2 |
| 20260504223027 | 59 | 282 | 1.0 | 1.0 | 0.00 | 0.00 | 0.00 | 28 | 1019.2 |
| 20260504222524 | 58 | 248 | 10.0 | 14.0 | 0.00 | 0.00 | 0.00 | 27 | 1019.2 |
| 20260504222021 | 59 | 302 | 6.0 | 11.0 | 0.00 | 0.00 | 0.00 | 26 | 1019.6 |
| 20260504221518 | 60 | 279 | 3.0 | 6.0 | 0.00 | 0.00 | 0.00 | 27 | 1019.5 |
| 20260504221015 | 59 | 240 | 3.0 | 6.0 | 0.00 | 0.00 | 0.00 | 27 | 1019.9 |
| 20260504220512 | 59 | 347 | 4.0 | 6.0 | 0.00 | 0.00 | 0.00 | 28 | 1019.8 |
| 20260504220009 | 59 | 254 | 2.0 | 4.0 | 0.00 | 0.00 | 0.00 | 28 | 1019.8 |
| 20260504215505 | 59 | 6 | 4.0 | 7.0 | 0.00 | 0.00 | 0.00 | 28 | 1019.8 |
| 20260504215003 | 60 | 285 | 4.0 | 7.0 | 0.00 | 0.00 | 0.00 | 27 | 1019.8 |
| 20260504214458 | 61 | 294 | 1.0 | 1.0 | 0.00 | 0.00 | 0.00 | 25 | 1019.5 |
| 20260504213955 | 60 | 247 | 2.0 | 3.0 | 0.00 | 0.00 | 0.00 | 27 | 1019.8 |
| 20260504213451 | 59 | 325 | 8.0 | 10.0 | 0.00 | 0.00 | 0.00 | 27 | 1019.8 |
| 20260504212948 | 60 | 213 | 8.0 | 14.0 | 0.00 | 0.00 | 0.00 | 26 | 1020.0 |
| 20260504212444 | 60 | 293 | 5.0 | 8.0 | 0.00 | 0.00 | 0.00 | 26 | 1020.2 |
| 20260504211942 | 60 | 227 | 2.0 | 3.0 | 0.00 | 0.00 | 0.00 | 27 | 1019.9 |
| 20260504211438 | 61 | 249 | 3.0 | 4.0 | 0.00 | 0.00 | 0.00 | 27 | 1019.8 |
| 20260504210936 | 62 | 239 | 4.0 | 6.0 | 0.00 | 0.00 | 0.00 | 26 | 1020.0 |
| 20260504210433 | 63 | 211 | 9.0 | 15.0 | 0.00 | 0.00 | 0.00 | 26 | 1020.6 |
| 20260504205929 | 62 | 279 | 2.0 | 3.0 | 0.00 | 0.00 | 0.00 | 27 | 1020.3 |
| 20260504205427 | 62 | 22 | 4.0 | 6.0 | 0.00 | 0.00 | 0.00 | 28 | 1020.3 |
| 20260504204925 | 60 | 286 | 1.0 | 1.0 | 0.00 | 0.00 | 0.00 | 28 | 1020.7 |
| 20260504204423 | 61 | 312 | 7.0 | 9.0 | 0.00 | 0.00 | 0.00 | 27 | 1020.7 |
| 20260504203922 | 60 | 327 | 5.0 | 8.0 | 0.00 | 0.00 | 0.00 | 28 | 1020.8 |
| 20260504203419 | 60 | 333 | 4.0 | 4.0 | 0.00 | 0.00 | 0.00 | 29 | 1020.4 |
| 20260504202915 | 59 | 341 | 3.0 | 4.0 | 0.00 | 0.00 | 0.00 | 30 | 1020.7 |
| 20260504202412 | 60 | 217 | 2.0 | 3.0 | 0.00 | 0.00 | 0.00 | 28 | 1020.7 |
| 20260504201909 | 59 | 266 | 4.0 | 4.0 | 0.00 | 0.00 | 0.00 | 27 | 1020.6 |
| 20260504201406 | 59 | 341 | 9.0 | 13.0 | 0.00 | 0.00 | 0.00 | 27 | 1020.9 |
| 20260504200903 | 59 | 263 | 4.0 | 4.0 | 0.00 | 0.00 | 0.00 | 28 | 1020.9 |
| 20260504200400 | 59 | 358 | 4.0 | 7.0 | 0.00 | 0.00 | 0.00 | 26 | 1020.9 |
| 20260504195856 | 59 | 302 | 6.0 | 11.0 | 0.00 | 0.00 | 0.00 | 28 | 1020.6 |
| 20260504195352 | 59 | 279 | 9.0 | 10.0 | 0.00 | 0.00 | 0.00 | 27 | 1021.1 |
| 20260504194849 | 57 | 266 | 6.0 | 9.0 | 0.00 | 0.00 | 0.00 | 28 | 1020.7 |
| 20260504194345 | 59 | 305 | 4.0 | 6.0 | 0.00 | 0.00 | 0.00 | 27 | 1021.1 |
| 20260504193841 | 59 | 295 | 6.0 | 8.0 | 0.00 | 0.00 | 0.00 | 27 | 1021.2 |
| 20260504193338 | 59 | 283 | 7.0 | 9.0 | 0.00 | 0.00 | 0.00 | 27 | 1021.2 |
| 20260504192837 | 58 | 342 | 5.0 | 7.0 | 0.00 | 0.00 | 0.00 | 28 | 1021.1 |
| 20260504192335 | 59 | 281 | 5.0 | 6.0 | 0.00 | 0.00 | 0.00 | 29 | 1021.3 |
| 20260504191833 | 59 | 322 | 6.0 | 8.0 | 0.00 | 0.00 | 0.00 | 30 | 1021.3 |
| 20260504191330 | 59 | 301 | 5.0 | 7.0 | 0.00 | 0.00 | 0.00 | 29 | 1021.2 |
| 20260504190825 | 59 | 338 | 1.0 | 1.0 | 0.00 | 0.00 | 0.00 | 29 | 1021.2 |
| 20260504190322 | 57 | 267 | 7.0 | 8.0 | 0.00 | 0.00 | 0.00 | 31 | 1021.5 |
| 20260504185819 | 57 | 243 | 4.0 | 7.0 | 0.00 | 0.00 | 0.00 | 31 | 1021.5 |
| 20260504185316 | 59 | 252 | 9.0 | 11.0 | 0.00 | 0.00 | 0.00 | 30 | 1021.3 |
| 20260504184812 | 57 | 245 | 3.0 | 4.0 | 0.00 | 0.00 | 0.00 | 30 | 1021.6 |